Hourly Weather Rudma

Today, 22 April, Thursday

Time Temperature Precipitation Wind Pressure Humidity
00:00 +6°C° 0 mm 2 mps 743 mmHg 85%
01:00 +6°C° 0 mm 2 mps 743 mmHg 87%
02:00 +5°C° 0 mm 2 mps 743 mmHg 87%
03:00 +5°C° 0 mm 2 mps 743 mmHg 88%
04:00 +5°C° 0 mm 2 mps 743 mmHg 89%
05:00 +5°C° 0 mm 2 mps 743 mmHg 90%
06:00 +7°C° 0.1 mm 3 mps 743 mmHg 86%
07:00 +8°C° 0.1 mm 3 mps 743 mmHg 81%
08:00 +8°C° 0.1 mm 4 mps 743 mmHg 77%
09:00 +10°C° 0.3 mm 4 mps 743 mmHg 73%
10:00 +10°C° 0.3 mm 5 mps 743 mmHg 69%
11:00 +11°C° 0.3 mm 6 mps 743 mmHg 65%
12:00 +10°C° 0.3 mm 5 mps 744 mmHg 68%
13:00 +9°C° 0.3 mm 5 mps 744 mmHg 71%
14:00 +8°C° 0.3 mm 5 mps 744 mmHg 75%
15:00 +8°C° 0 mm 5 mps 744 mmHg 70%
16:00 +8°C° 0 mm 5 mps 744 mmHg 66%
17:00 +8°C° 0 mm 4 mps 744 mmHg 62%
18:00 +7°C° 0 mm 4 mps 744 mmHg 63%
19:00 +7°C° 0 mm 3 mps 745 mmHg 64%
20:00 +4°C° 0 mm 3 mps 745 mmHg 66%
21:00 +4°C° 0 mm 3 mps 745 mmHg 69%
22:00 +3°C° 0 mm 3 mps 745 mmHg 73%
23:00 +2°C° 0 mm 3 mps 745 mmHg 76%

Tomorrow, 23 April, Friday

Time Temperature Precipitation Wind Pressure Humidity
00:00 +2°C° 0 mm 3 mps 745 mmHg 79%
01:00 +1°C° 0 mm 3 mps 745 mmHg 82%
02:00 +1°C° 0 mm 3 mps 745 mmHg 85%
03:00 0°C° 0 mm 4 mps 745 mmHg 85%
04:00 -1°C° 0 mm 4 mps 745 mmHg 86%
05:00 -1°C° 0 mm 4 mps 745 mmHg 86%
06:00 0°C° 0 mm 5 mps 746 mmHg 81%
07:00 0°C° 0 mm 5 mps 746 mmHg 77%
08:00 +1°C° 0 mm 6 mps 746 mmHg 72%
09:00 +2°C° 0.1 mm 6 mps 746 mmHg 70%
10:00 +2°C° 0.1 mm 6 mps 747 mmHg 68%
11:00 +3°C° 0.1 mm 5 mps 747 mmHg 65%
12:00 +5°C° 0.3 mm 5 mps 747 mmHg 63%
13:00 +5°C° 0.3 mm 5 mps 747 mmHg 61%
14:00 +6°C° 0.3 mm 5 mps 747 mmHg 59%
15:00 +6°C° 0.3 mm 5 mps 747 mmHg 57%
16:00 +6°C° 0.3 mm 5 mps 747 mmHg 55%
17:00 +6°C° 0.3 mm 4 mps 747 mmHg 53%
18:00 +4°C° 0.1 mm 4 mps 747 mmHg 61%
19:00 +3°C° 0.1 mm 3 mps 747 mmHg 69%
20:00 +2°C° 0.1 mm 2 mps 747 mmHg 77%
21:00 +1°C° 0 mm 3 mps 747 mmHg 76%
22:00 +1°C° 0 mm 3 mps 747 mmHg 76%
23:00 +1°C° 0 mm 3 mps 747 mmHg 76%

Day after tomorrow, 24 April, Saturday

Time Temperature Precipitation Wind Pressure Humidity
00:00 0°C° 0 mm 3 mps 747 mmHg 80%
01:00 -1°C° 0 mm 3 mps 747 mmHg 83%
02:00 -3°C° 0 mm 4 mps 747 mmHg 87%
03:00 -3°C° 0 mm 4 mps 748 mmHg 89%
04:00 -3°C° 0 mm 4 mps 748 mmHg 91%
05:00 -4°C° 0 mm 4 mps 748 mmHg 93%
06:00 -2°C° 0 mm 4 mps 748 mmHg 84%
07:00 -1°C° 0 mm 5 mps 748 mmHg 76%
08:00 +1°C° 0 mm 5 mps 748 mmHg 67%
09:00 +2°C° 0 mm 5 mps 748 mmHg 60%
10:00 +3°C° 0 mm 6 mps 748 mmHg 53%
11:00 +4°C° 0 mm 6 mps 748 mmHg 46%
12:00 +4°C° 0.2 mm 7 mps 748 mmHg 47%
13:00 +5°C° 0.2 mm 7 mps 748 mmHg 48%
14:00 +5°C° 0.2 mm 7 mps 748 mmHg 49%
15:00 +5°C° 0.2 mm 7 mps 748 mmHg 50%
16:00 +4°C° 0.2 mm 7 mps 748 mmHg 50%
17:00 +4°C° 0.2 mm 6 mps 748 mmHg 51%
18:00 +3°C° 0 mm 6 mps 748 mmHg 53%
19:00 +2°C° 0 mm 5 mps 748 mmHg 55%
20:00 0°C° 0 mm 4 mps 748 mmHg 58%
21:00 -1°C° 0 mm 4 mps 748 mmHg 62%
22:00 -1°C° 0 mm 4 mps 748 mmHg 66%
23:00 -2°C° 0 mm 4 mps 748 mmHg 69%

25 April, Sunday

Time Temperature Precipitation Wind Pressure Humidity
00:00 -3°C° 0 mm 4 mps 748 mmHg 73%
01:00 -3°C° 0 mm 4 mps 748 mmHg 76%
02:00 -3°C° 0 mm 4 mps 748 mmHg 80%
03:00 -4°C° 0 mm 4 mps 748 mmHg 82%
04:00 -4°C° 0 mm 4 mps 748 mmHg 85%
05:00 -4°C° 0 mm 4 mps 748 mmHg 87%
06:00 -4°C° 0 mm 5 mps 748 mmHg 80%
07:00 -1°C° 0 mm 5 mps 748 mmHg 73%
08:00 -1°C° 0 mm 6 mps 748 mmHg 66%
09:00 +1°C° 0 mm 6 mps 748 mmHg 61%
10:00 +2°C° 0 mm 6 mps 748 mmHg 56%
11:00 +3°C° 0 mm 5 mps 748 mmHg 50%
12:00 +4°C° 0.2 mm 6 mps 748 mmHg 49%
13:00 +4°C° 0.2 mm 6 mps 748 mmHg 48%
14:00 +5°C° 0.2 mm 6 mps 748 mmHg 48%
15:00 +4°C° 0.3 mm 6 mps 748 mmHg 53%
16:00 +4°C° 0.3 mm 6 mps 747 mmHg 58%
17:00 +5°C° 0.3 mm 5 mps 747 mmHg 63%
18:00 +3°C° 0.3 mm 4 mps 747 mmHg 69%
19:00 +1°C° 0.3 mm 4 mps 747 mmHg 76%
20:00 +1°C° 0.3 mm 3 mps 748 mmHg 83%
21:00 0°C° 0 mm 3 mps 748 mmHg 85%
22:00 +1°C° 0 mm 2 mps 748 mmHg 86%
23:00 -1°C° 0 mm 2 mps 748 mmHg 88%

26 April, Monday

Time Temperature Precipitation Wind Pressure Humidity
00:00 -2°C° 0 mm 2 mps 747 mmHg 89%
01:00 -2°C° 0 mm 2 mps 747 mmHg 91%
02:00 -3°C° 0 mm 2 mps 747 mmHg 92%
03:00 -3°C° 0.1 mm 2 mps 747 mmHg 93%
04:00 -2°C° 0.1 mm 2 mps 747 mmHg 94%
05:00 -2°C° 0.1 mm 2 mps 747 mmHg 95%
06:00 -1°C° 0.2 mm 3 mps 747 mmHg 92%
07:00 0°C° 0.2 mm 3 mps 747 mmHg 88%
08:00 0°C° 0.2 mm 3 mps 747 mmHg 84%
09:00 +1°C° 0.1 mm 3 mps 747 mmHg 76%
10:00 +2°C° 0.1 mm 3 mps 747 mmHg 68%
11:00 +3°C° 0.1 mm 3 mps 747 mmHg 61%
12:00 +4°C° 0.2 mm 3 mps 747 mmHg 57%
13:00 +5°C° 0.2 mm 3 mps 746 mmHg 54%
14:00 +5°C° 0.2 mm 4 mps 746 mmHg 50%
15:00 +5°C° 0.2 mm 3 mps 746 mmHg 52%
16:00 +5°C° 0.2 mm 3 mps 746 mmHg 54%
17:00 +5°C° 0.2 mm 3 mps 746 mmHg 56%
18:00 +4°C° 0.1 mm 3 mps 746 mmHg 65%
19:00 +3°C° 0.1 mm 2 mps 746 mmHg 74%
20:00 +1°C° 0.1 mm 2 mps 746 mmHg 83%
21:00 +1°C° 0 mm 2 mps 746 mmHg 85%
22:00 -1°C° 0 mm 2 mps 746 mmHg 88%
23:00 -1°C° 0 mm 2 mps 747 mmHg 91%

27 April, Tuesday

Time Temperature Precipitation Wind Pressure Humidity
00:00 -2°C° 0 mm 2 mps 747 mmHg 92%
01:00 -2°C° 0 mm 2 mps 747 mmHg 94%
02:00 -2°C° 0 mm 2 mps 747 mmHg 95%
03:00 -2°C° 0 mm 2 mps 747 mmHg 95%
04:00 -2°C° 0 mm 2 mps 747 mmHg 96%
05:00 -3°C° 0 mm 2 mps 747 mmHg 96%
06:00 -1°C° 0 mm 2 mps 747 mmHg 89%
07:00 +2°C° 0 mm 2 mps 747 mmHg 81%
08:00 +2°C° 0 mm 3 mps 748 mmHg 74%
09:00 +5°C° 0 mm 2 mps 748 mmHg 67%
10:00 +6°C° 0 mm 2 mps 748 mmHg 60%
11:00 +7°C° 0 mm 2 mps 748 mmHg 53%
12:00 +8°C° 0 mm 3 mps 747 mmHg 51%
13:00 +9°C° 0 mm 3 mps 747 mmHg 49%
14:00 +9°C° 0 mm 3 mps 747 mmHg 47%
15:00 +9°C° 0 mm 3 mps 747 mmHg 51%
16:00 +8°C° 0 mm 3 mps 747 mmHg 55%
17:00 +8°C° 0 mm 3 mps 747 mmHg 59%
18:00 +6°C° 0 mm 2 mps 747 mmHg 65%
19:00 +6°C° 0 mm 1 mps 747 mmHg 72%
20:00 +5°C° 0 mm 1 mps 747 mmHg 78%
21:00 +4°C° 0 mm 1 mps 747 mmHg 80%
22:00 +4°C° 0 mm 1 mps 747 mmHg 81%
23:00 +3°C° 0 mm 1 mps 747 mmHg 83%
Show more